Theta_e
281 281 280 279 279 280 280 279 277 274 275 279 278 280 280 280 280 279 278 279 282 283 283 284 285 286 286 287 287 288 288 289 289 290 290 291 291 291
280 279 279 278 278 279 279 278 278 276 273 278 278 279 279 278 279 278 277 278 279 280 281 282 283 284 284 285 286 286 286 287 287 288 288 288 289 290
278 278 278 278 277 278 279 278 277 276 274 276 278 279 277 277 277 277 277 277 278 278 279 281 281 282 282 282 283 283 284 284 285 285 285 286 288 289
277 277 277 278 277 277 277 276 276 277 275 274 276 276 276 277 276 275 275 276 276 277 279 279 279 280 280 280 280 281 281 281 281 282 283 285 286 287
276 276 276 277 276 277 277 276 277 277 277 275 274 276 276 275 274 275 275 275 275 276 276 276 277 277 277 278 278 278 278 278 279 281 281 282 283 284
277 276 276 276 276 276 276 276 277 276 276 275 274 274 273 274 274 272 271 273 272 272 273 274 274 274 274 275 275 274 275 277 278 279 279 280 281 282
276 276 277 277 277 277 277 277 277 276 275 274 272 272 271 271 270 271 269 270 270 271 270 270 269 269 270 271 271 273 275 276 277 278 278 279 280 281
275 276 276 276 276 276 277 279 279 276 274 272 271 269 270 271 270 268 268 266 264 270 266 265 268 267 268 269 271 273 273 275 276 277 277 277 278 278
275 275 275 276 275 275 276 278 278 277 276 273 270 270 269 269 268 266 265 265 263 265 264 262 265 265 267 268 270 271 273 274 274 275 275 276 276 277
276 275 275 274 275 276 276 276 274 273 272 273 272 270 269 269 268 267 265 263 263 264 264 259 265 264 265 266 269 270 271 272 272 273 274 274 275 276
276 275 275 274 276 278 276 271 270 270 272 272 271 270 270 269 269 265 261 260 258 260 263 262 262 261 263 263 266 268 269 270 271 271 272 273 273 274
274 275 276 276 277 278 274 269 267 268 266 265 264 265 265 265 266 264 262 259 258 257 263 260 260 260 257 262 263 263 264 267 269 270 270 271 272 270
274 274 274 276 277 276 275 268 269 269 263 262 261 262 262 262 262 262 262 260 258 257 262 262 259 258 258 257 260 261 262 263 264 264 267 269 269 270
273 274 274 275 274 273 270 271 270 264 261 260 259 259 260 260 261 261 260 260 261 260 261 261 258 257 256 255 255 260 261 262 263 262 263 265 268 269
275 274 273 271 270 267 267 267 263 261 259 258 258 258 259 260 259 259 260 260 260 260 261 260 259 258 258 256 256 257 259 259 261 262 262 262 264 265
271 268 269 267 266 265 262 262 260 259 258 257 257 257 258 258 257 258 257 258 257 258 261 261 261 259 257 257 257 256 258 256 259 261 263 262 263 264
264 264 263 262 261 260 260 258 258 258 257 257 256 255 256 256 256 258 257 256 255 256 257 259 260 260 259 257 255 257 258 259 261 261 261 259 262 264
262 260 260 259 259 258 257 256 256 256 256 255 255 255 254 254 255 256 256 255 254 255 256 258 258 257 258 259 263 260 260 260 260 260 261 260 261 264
258 257 257 258 258 257 256 255 254 255 254 254 254 254 254 254 253 254 254 254 254 255 256 257 257 256 254 254 259 264 259 258 260 261 262 262 261 263
256 256 255 255 255 254 254 253 252 253 253 253 252 252 252 252 252 252 253 253 253 254 255 257 258 258 256 254 254 257 265 262 261 261 261 264 266 270
255 255 254 253 253 252 252 251 250 250 250 250 250 250 251 251 251 252 253 252 253 254 253 255 259 260 260 260 257 258 261 266 266 263 263 263 263 265
253 252 252 251 250 250 250 249 248 248 249 249 249 250 251 251 251 251 252 252 252 253 254 256 259 260 260 259 256 257 259 261 265 267 268 268 265 263
252 251 251 250 249 249 248 247 247 248 248 248 249 250 250 249 251 251 252 252 252 253 254 255 258 260 260 260 259 259 258 260 260 260 262 269 270 272
Wind_Speed
8 7 6 5 5 4 4 3 2 3 3 2 4 8 10 10 13 13 15 21 23 23 26 26 25 27 26 24 26 27 29 28 28 28 28 28 27 27
5 6 5 4 4 3 3 3 2 2 4 3 6 10 11 9 12 13 14 19 20 22 26 26 28 27 26 26 26 30 30 29 29 29 29 28 28 28
5 5 5 4 3 3 1 2 2 3 5 8 8 10 12 12 11 11 12 11 10 21 23 26 27 25 24 28 31 31 30 30 30 29 29 29 29 30
5 5 4 2 3 2 2 3 4 4 6 11 11 10 12 12 12 13 10 10 11 17 25 27 24 24 26 30 32 30 29 29 29 29 29 30 31 31
4 4 3 1 2 3 4 4 5 6 6 8 11 9 10 10 12 11 11 11 11 20 23 21 20 23 32 31 29 28 28 28 29 30 31 32 33 33
3 1 1 2 3 6 6 6 7 8 7 9 10 10 11 11 10 11 11 11 12 13 15 17 19 29 28 27 26 27 27 29 32 34 34 33 32 32
1 1 2 4 4 8 6 7 8 8 8 9 10 11 11 10 12 11 13 13 12 12 10 13 13 12 13 18 20 24 29 34 35 34 33 32 30 31
2 3 4 2 6 9 10 12 11 8 9 10 10 11 13 12 11 12 12 12 11 5 15 14 12 12 12 12 25 29 34 34 33 31 34 35 34 34
3 3 3 3 6 7 11 13 6 8 12 12 12 11 14 15 15 14 14 13 13 12 14 14 11 11 12 13 28 31 32 29 32 33 34 35 34 34
3 3 3 5 7 10 10 4 5 7 9 8 10 13 14 14 13 12 14 14 11 10 12 10 11 13 13 12 29 26 26 32 34 34 34 34 34 35
3 2 3 6 11 16 6 6 8 9 8 12 16 19 18 17 15 9 9 10 12 12 11 10 11 16 15 13 11 24 32 34 33 33 34 34 34 35
3 3 5 9 14 14 8 8 10 8 8 10 10 11 12 11 15 9 9 9 10 9 7 10 12 11 11 10 13 15 13 28 34 33 34 33 32 15
4 3 3 12 13 14 15 7 10 9 10 7 7 7 7 8 7 8 10 9 10 10 14 12 11 12 10 15 17 11 15 17 16 20 28 31 30 26
5 4 4 9 11 12 10 15 15 9 5 6 7 7 8 8 8 9 12 11 11 15 17 13 11 12 13 16 18 15 15 16 15 16 16 22 29 32
3 4 8 9 10 8 12 13 9 5 6 6 7 8 8 9 11 10 11 12 14 15 12 12 11 14 11 15 18 20 21 17 15 13 15 17 16 15
4 4 7 8 8 6 5 7 5 5 6 7 7 8 8 8 9 8 10 10 11 12 13 11 13 14 13 14 14 20 18 15 17 17 16 18 17 16
4 2 3 4 6 6 5 5 5 5 6 6 7 8 8 9 9 8 8 10 9 11 14 14 13 14 12 18 17 17 17 17 16 18 18 21 19 16
3 2 3 4 5 6 6 7 6 6 6 6 7 7 8 9 10 10 9 9 10 12 14 13 14 15 12 10 20 15 18 15 18 20 18 18 23 19
2 2 3 5 5 6 6 6 6 7 6 6 7 8 8 8 9 9 10 9 11 11 13 13 13 12 16 19 15 12 18 19 18 18 17 16 19 25
1 2 4 5 5 6 6 6 6 6 6 6 7 7 7 8 9 9 9 10 11 12 13 13 12 13 15 17 21 23 31 18 17 19 20 17 20 39
3 4 4 4 5 5 5 5 5 6 6 6 6 6 7 7 9 8 10 14 13 11 13 14 15 24 13 14 15 18 21 31 27 20 20 18 19 21
4 4 5 4 4 5 5 5 6 6 6 5 6 6 7 6 8 10 9 10 11 11 13 14 16 14 14 15 18 24 22 24 30 37 29 23 17 19
4 4 5 5 4 5 4 5 4 6 6 6 6 6 6 7 8 9 10 10 10 12 12 14 14 14 14 15 19 18 26 24 21 25 24 39 40 37
Wind_Direction
77 80 73 56 57 63 63 43 20 324 307 347 326 350 339 335 334 334 336 331 335 336 339 336 333 333 330 329 327 330 326 323 322 319 318 317 315 312
79 84 83 63 57 53 61 45 20 299 281 306 318 320 323 320 323 323 323 321 324 328 333 329 328 326 325 328 324 325 322 321 318 316 315 312 309 304
88 89 84 65 57 44 26 12 337 290 281 304 308 316 314 315 314 314 315 313 315 322 319 320 322 321 320 321 324 318 317 316 314 313 309 305 302 302
89 78 70 58 45 16 345 324 317 306 289 305 312 317 316 317 316 313 312 311 317 313 315 318 318 316 317 320 313 311 312 312 310 305 302 302 303 301
87 68 36 321 351 357 335 321 322 312 309 308 312 315 317 319 320 313 317 315 315 315 314 316 312 311 316 310 306 309 312 308 303 303 305 304 299 294
90 138 354 309 347 345 325 320 318 317 317 314 316 320 322 326 315 321 321 320 319 315 314 317 316 311 306 308 307 309 306 302 308 305 299 297 295 289
178 336 343 343 341 333 322 312 314 320 323 325 321 319 323 329 329 330 318 320 321 309 327 313 310 305 303 304 300 304 306 309 303 302 298 294 299 299
326 342 329 276 327 322 315 311 314 333 331 328 322 319 324 332 325 324 320 322 317 329 322 306 311 304 304 307 304 310 307 305 302 304 310 302 298 297
288 308 300 319 313 309 297 305 341 349 339 329 321 330 328 327 325 324 318 316 312 317 310 302 311 300 308 304 304 302 304 303 309 303 303 298 294 294
242 269 281 318 320 316 313 359 9 342 331 333 338 328 322 324 326 318 324 311 305 307 315 287 321 305 314 300 301 302 306 307 304 301 303 298 294 291
286 281 290 313 321 321 17 13 340 337 347 341 331 328 330 332 330 334 324 325 319 322 311 307 320 308 312 298 302 304 307 301 302 303 301 301 300 294
297 295 298 330 321 334 13 3 339 342 345 336 329 326 328 324 333 330 323 313 311 311 328 316 310 328 312 301 308 301 296 295 303 302 304 300 296 292
303 306 299 318 331 352 352 341 321 6 341 325 317 316 318 317 319 317 312 306 299 281 291 323 308 307 292 306 303 298 295 293 302 298 296 298 297 290
308 300 301 335 3 355 351 334 346 351 330 324 324 322 322 320 319 312 300 291 279 277 293 297 286 294 295 295 294 299 296 293 292 296 294 288 290 292
298 41 35 18 6 2 345 345 356 336 326 323 322 316 315 311 309 304 298 296 289 286 287 286 276 287 284 284 289 295 300 303 296 287 298 286 285 291
43 45 16 5 358 353 335 344 338 331 321 314 310 309 309 313 312 315 312 318 310 305 311 293 295 292 292 284 287 288 295 293 299 291 294 292 285 282
76 24 349 352 343 338 331 328 327 321 320 318 314 312 313 317 316 323 315 313 301 304 308 314 308 294 284 283 288 283 290 294 299 297 303 293 283 281
64 7 334 333 324 323 322 323 320 316 318 319 311 307 312 316 314 316 315 310 304 307 305 310 313 312 304 279 282 294 298 301 301 298 291 292 294 293
30 338 307 318 326 325 317 314 305 307 306 303 303 306 311 307 312 311 310 309 306 306 303 308 311 313 315 314 317 302 309 301 298 301 297 290 288 291
305 301 314 320 314 305 303 301 302 303 303 300 299 297 299 304 307 305 305 304 304 307 305 308 311 317 315 308 308 305 307 309 309 305 303 295 286 289
319 313 301 291 289 291 289 285 284 288 288 292 291 291 294 296 296 292 295 299 299 301 304 307 308 309 297 298 303 312 314 320 320 309 308 304 306 305
286 276 276 275 275 270 276 279 288 288 286 281 281 284 289 284 287 292 295 300 303 300 295 297 306 312 317 321 314 314 318 322 324 322 318 316 322 317
275 275 282 280 275 280 282 284 268 278 270 269 277 282 283 287 285 284 289 291 290 297 302 305 311 314 320 322 320 319 323 328 330 330 324 333 335 335